Time,TemperatureF,DewpointF,PressureIn,WindDirection,WindDirectionDegrees,WindSpeedMPH,WindSpeedGustMPH,Humidity,HourlyPrecipIn,Conditions,Clouds,dailyrainin,SoftwareType,DateUTC
2013-02-23 00:18:00,46.9,37.0,30.17,SE,146,10.0,10.0,68,0.00,,,0.00,weatherlink.com 1.10,2013-02-23 08:18:00,
2013-02-23 00:32:00,47.4,36.0,30.15,SSE,149,6.0,12.0,66,0.00,,,0.00,weatherlink.com 1.10,2013-02-23 08:32:00,
2013-02-23 00:48:00,46.8,37.0,30.14,SSE,155,7.0,13.0,68,0.00,,,0.00,weatherlink.com 1.10,2013-02-23 08:48:00,
2013-02-23 01:03:00,46.5,37.0,30.13,SSE,149,7.0,13.0,69,0.00,,,0.00,weatherlink.com 1.10,2013-02-23 09:03:00,
2013-02-23 01:18:00,46.2,37.0,30.14,SSE,165,7.0,11.0,70,0.00,,,0.00,weatherlink.com 1.10,2013-02-23 09:18:00,
2013-02-23 01:33:00,46.5,37.0,30.14,SSE,167,8.0,14.0,70,0.00,,,0.00,weatherlink.com 1.10,2013-02-23 09:33:00,
2013-02-23 01:48:00,46.4,37.0,30.13,South,175,9.0,13.0,70,0.00,,,0.00,weatherlink.com 1.10,2013-02-23 09:48:00,
2013-02-23 02:03:00,46.6,38.0,30.12,SSE,151,14.0,15.0,71,0.00,,,0.00,weatherlink.com 1.10,2013-02-23 10:03:00,
2013-02-23 02:18:00,46.5,38.0,30.12,SSE,165,8.0,17.0,71,0.00,,,0.00,weatherlink.com 1.10,2013-02-23 10:18:00,
2013-02-23 02:33:00,46.3,38.0,30.12,SSE,161,11.0,16.0,73,0.00,,,0.00,weatherlink.com 1.10,2013-02-23 10:33:00,
2013-02-23 02:48:00,46.0,39.0,30.13,South,185,3.0,15.0,75,0.00,,,0.00,weatherlink.com 1.10,2013-02-23 10:48:00,
2013-02-23 03:03:00,45.7,39.0,30.12,South,190,1.0,9.0,77,0.00,,,0.00,weatherlink.com 1.10,2013-02-23 11:03:00,
2013-02-23 03:18:00,45.5,39.0,30.12,SSW,204,5.0,13.0,78,0.00,,,0.00,weatherlink.com 1.10,2013-02-23 11:18:00,
2013-02-23 03:33:00,45.2,39.0,30.12,SSE,163,7.0,9.0,79,0.00,,,0.00,weatherlink.com 1.10,2013-02-23 11:33:00,
2013-02-23 03:48:00,44.6,39.0,30.12,South,177,2.0,11.0,80,0.00,,,0.00,weatherlink.com 1.10,2013-02-23 11:48:00,
2013-02-23 04:03:00,44.1,39.0,30.12,SSE,168,4.0,10.0,82,0.00,,,0.00,weatherlink.com 1.10,2013-02-23 12:03:00,
2013-02-23 04:18:00,43.9,39.0,30.12,South,170,5.0,10.0,82,0.00,,,0.00,weatherlink.com 1.10,2013-02-23 12:18:00,
2013-02-23 04:33:00,43.6,39.0,30.12,West,270,2.0,11.0,83,0.00,,,0.00,weatherlink.com 1.10,2013-02-23 12:33:00,
2013-02-23 04:48:00,43.4,39.0,30.12,SSE,154,6.0,11.0,84,0.00,,,0.00,weatherlink.com 1.10,2013-02-23 12:48:00,
2013-02-23 05:03:00,43.1,39.0,30.12,SSE,162,5.0,9.0,85,0.00,,,0.00,weatherlink.com 1.10,2013-02-23 13:03:00,
2013-02-23 05:18:00,42.6,39.0,30.12,SSE,161,6.0,14.0,86,0.00,,,0.00,weatherlink.com 1.10,2013-02-23 13:18:00,
2013-02-23 05:33:00,42.4,39.0,30.12,South,176,4.0,10.0,87,0.00,,,0.00,weatherlink.com 1.10,2013-02-23 13:33:00,
2013-02-23 05:48:00,42.4,39.0,30.12,South,169,3.0,11.0,87,0.00,,,0.00,weatherlink.com 1.10,2013-02-23 13:48:00,
2013-02-23 06:03:00,42.3,39.0,30.14,SE,145,3.0,8.0,87,0.00,,,0.00,weatherlink.com 1.10,2013-02-23 14:03:00,
2013-02-23 06:18:00,42.3,39.0,30.14,SSE,147,7.0,11.0,88,0.00,,,0.00,weatherlink.com 1.10,2013-02-23 14:18:00,
2013-02-23 06:33:00,42.3,39.0,30.15,SSE,158,2.0,3.0,88,0.00,,,0.00,VWS V14.01,2013-02-23 14:33:00,
2013-02-23 06:38:00,42.3,39.0,30.15,SE,144,3.0,4.0,88,0.00,,,0.00,VWS V14.01,2013-02-23 14:38:00,
2013-02-23 06:43:00,42.3,39.3,30.15,SE,146,1.0,2.0,89,0.00,,,0.00,VWS V14.01,2013-02-23 14:43:00,
2013-02-23 06:48:00,42.4,39.4,30.15,SSE,168,2.0,2.0,89,0.00,,,0.00,VWS V14.01,2013-02-23 14:48:00,
2013-02-23 06:53:00,42.4,39.4,30.15,South,174,3.0,5.0,89,0.00,,,0.00,VWS V14.01,2013-02-23 14:53:00,
2013-02-23 06:58:00,42.4,39.4,30.15,SSE,150,2.0,5.0,89,0.00,,,0.00,VWS V14.01,2013-02-23 14:58:00,
2013-02-23 07:03:00,42.4,39.4,30.15,SSE,157,2.0,5.0,89,0.00,,,0.00,VWS V14.01,2013-02-23 15:03:00,
2013-02-23 07:08:00,42.4,39.4,30.14,SSE,161,5.0,5.0,89,0.00,,,0.00,VWS V14.01,2013-02-23 15:08:00,
2013-02-23 07:13:00,42.4,39.4,30.15,SSE,161,3.0,3.0,89,0.00,,,0.00,VWS V14.01,2013-02-23 15:13:00,
2013-02-23 07:18:00,42.4,39.4,30.15,South,169,2.0,3.0,89,0.00,,,0.00,VWS V14.01,2013-02-23 15:18:00,
2013-02-23 07:23:00,42.4,39.4,30.15,SSE,165,5.0,5.0,89,0.00,,,0.00,VWS V14.01,2013-02-23 15:23:00,
2013-02-23 07:28:00,42.5,39.5,30.16,SSE,156,3.0,5.0,89,0.00,,,0.00,VWS V14.01,2013-02-23 15:28:00,
2013-02-23 07:33:00,42.5,39.5,30.16,ESE,122,2.0,2.0,89,0.00,,,0.00,VWS V14.01,2013-02-23 15:33:00,
2013-02-23 07:38:00,42.6,39.6,30.16,SE,125,3.0,3.0,89,0.00,,,0.00,VWS V14.01,2013-02-23 15:38:00,
2013-02-23 07:43:00,42.7,39.7,30.17,SE,125,0.0,0.0,89,0.00,,,0.00,VWS V14.01,2013-02-23 15:43:00,
2013-02-23 07:48:00,42.7,39.7,30.17,SE,127,0.0,1.0,89,0.00,,,0.00,VWS V14.01,2013-02-23 15:48:00,
2013-02-23 07:53:00,42.8,39.8,30.17,SE,127,0.0,0.0,89,0.00,,,0.00,VWS V14.01,2013-02-23 15:53:00,
2013-02-23 07:58:00,42.8,39.8,30.17,SE,127,0.0,0.0,89,0.00,,,0.00,VWS V14.01,2013-02-23 15:58:00,
2013-02-23 08:03:00,42.9,39.9,30.17,SE,127,0.0,0.0,89,0.00,,,0.00,VWS V14.01,2013-02-23 16:03:00,
2013-02-23 08:08:00,42.9,39.9,30.18,SW,228,0.0,0.0,89,0.00,,,0.00,VWS V14.01,2013-02-23 16:08:00,
2013-02-23 08:13:00,43.0,40.0,30.18,SW,228,0.0,0.0,89,0.00,,,0.00,VWS V14.01,2013-02-23 16:13:00,
2013-02-23 08:18:00,43.1,40.1,30.18,SW,223,0.0,0.0,89,0.00,,,0.00,VWS V14.01,2013-02-23 16:18:00,
2013-02-23 08:23:00,43.2,40.2,30.18,SW,223,0.0,1.0,89,0.00,,,0.00,VWS V14.01,2013-02-23 16:23:00,
2013-02-23 08:28:00,43.3,40.0,30.18,SW,223,0.0,0.0,88,0.00,,,0.00,VWS V14.01,2013-02-23 16:28:00,
2013-02-23 08:33:00,43.4,40.4,30.19,SW,223,0.0,0.0,89,0.00,,,0.00,VWS V14.01,2013-02-23 16:33:00,
2013-02-23 08:38:00,43.6,40.6,30.18,SW,223,0.0,0.0,89,0.00,,,0.00,VWS V14.01,2013-02-23 16:38:00,
2013-02-23 08:43:00,43.7,40.4,30.19,NNW,332,0.0,0.0,88,0.00,,,0.00,VWS V14.01,2013-02-23 16:43:00,
2013-02-23 08:48:00,43.9,40.3,30.19,NNW,331,0.0,0.0,87,0.00,,,0.00,VWS V14.01,2013-02-23 16:48:00,
2013-02-23 08:53:00,44.1,40.5,30.19,West,264,0.0,1.0,87,0.00,,,0.00,VWS V14.01,2013-02-23 16:53:00,
2013-02-23 08:58:00,44.3,40.4,30.19,NW,319,2.0,2.0,86,0.00,,,0.00,VWS V14.01,2013-02-23 16:58:00,
2013-02-23 09:03:00,44.5,40.9,30.19,NW,319,0.0,0.0,87,0.00,,,0.00,VWS V14.01,2013-02-23 17:03:00,
2013-02-23 09:08:00,44.8,40.9,30.19,NW,319,0.0,0.0,86,0.00,,,0.00,VWS V14.01,2013-02-23 17:08:00,
2013-02-23 09:13:00,45.0,40.8,30.19,NW,315,2.0,2.0,85,0.00,,,0.00,VWS V14.01,2013-02-23 17:13:00,
2013-02-23 09:18:00,45.0,40.8,30.19,NW,323,0.0,2.0,85,0.00,,,0.00,VWS V14.01,2013-02-23 17:18:00,
2013-02-23 09:23:00,44.9,40.7,30.19,NNW,328,3.0,3.0,85,0.00,,,0.00,VWS V14.01,2013-02-23 17:23:00,
2013-02-23 09:28:00,44.9,40.7,30.19,NW,309,3.0,3.0,85,0.00,,,0.00,VWS V14.01,2013-02-23 17:28:00,
2013-02-23 09:33:00,45.0,41.1,30.19,NNE,17,0.0,2.0,86,0.00,,,0.00,VWS V14.01,2013-02-23 17:33:00,
2013-02-23 09:38:00,45.0,41.1,30.19,NW,306,2.0,3.0,86,0.00,,,0.00,VWS V14.01,2013-02-23 17:38:00,
2013-02-23 09:43:00,45.2,41.6,30.20,WNW,297,4.0,4.0,87,0.00,,,0.00,VWS V14.01,2013-02-23 17:43:00,
2013-02-23 09:48:00,45.2,41.3,30.19,NNW,339,1.0,4.0,86,0.00,,,0.00,VWS V14.01,2013-02-23 17:48:00,
2013-02-23 09:53:00,45.5,41.9,30.19,NW,315,3.0,3.0,87,0.00,,,0.00,VWS V14.01,2013-02-23 17:53:00,
2013-02-23 09:58:00,45.7,41.5,30.19,NW,306,2.0,4.0,85,0.00,,,0.00,VWS V14.01,2013-02-23 17:58:00,
2013-02-23 10:03:00,45.9,42.0,30.19,NW,309,0.0,3.0,86,0.00,,,0.00,VWS V14.01,2013-02-23 18:03:00,
2013-02-23 10:08:00,46.2,41.6,30.18,NW,319,4.0,4.0,84,0.00,,,0.00,VWS V14.01,2013-02-23 18:08:00,
2013-02-23 10:13:00,46.4,41.5,30.18,NW,311,5.0,5.0,83,0.00,,,0.00,VWS V14.01,2013-02-23 18:13:00,
2013-02-23 10:18:00,46.6,41.4,30.18,NW,312,2.0,5.0,82,0.00,,,0.00,VWS V14.01,2013-02-23 18:18:00,
2013-02-23 10:23:00,47.1,41.9,30.18,SE,127,2.0,2.0,82,0.00,,,0.00,VWS V14.01,2013-02-23 18:23:00,
2013-02-23 10:28:00,47.6,41.8,30.19,WNW,299,6.0,6.0,80,0.00,,,0.00,VWS V14.01,2013-02-23 18:28:00,
2013-02-23 10:33:00,47.7,41.8,30.18,NW,325,2.0,4.0,80,0.00,,,0.00,VWS V14.01,2013-02-23 18:33:00,
2013-02-23 10:38:00,47.8,41.9,30.18,NNE,26,3.0,4.0,80,0.00,,,0.00,VWS V14.01,2013-02-23 18:38:00,
2013-02-23 10:43:00,48.0,41.8,30.18,NW,311,3.0,4.0,79,0.00,,,0.00,VWS V14.01,2013-02-23 18:43:00,
2013-02-23 10:48:00,48.2,41.0,30.18,NW,313,4.0,6.0,76,0.00,,,0.00,VWS V14.01,2013-02-23 18:48:00,
2013-02-23 10:53:00,47.8,40.6,30.18,NNW,330,2.0,4.0,76,0.00,,,0.00,VWS V14.01,2013-02-23 18:53:00,
2013-02-23 10:58:00,48.2,41.3,30.18,NW,310,2.0,5.0,77,0.00,,,0.00,VWS V14.01,2013-02-23 18:58:00,
2013-02-23 11:03:00,48.3,41.1,30.18,WNW,292,3.0,7.0,76,0.00,,,0.00,VWS V14.01,2013-02-23 19:03:00,
2013-02-23 11:08:00,48.5,40.6,30.18,North,357,4.0,4.0,74,0.00,,,0.00,VWS V14.01,2013-02-23 19:08:00,
2013-02-23 11:13:00,48.8,40.9,30.18,NE,34,4.0,4.0,74,0.00,,,0.00,VWS V14.01,2013-02-23 19:13:00,
2013-02-23 11:18:00,48.9,40.3,30.18,WNW,299,5.0,6.0,72,0.00,,,0.00,VWS V14.01,2013-02-23 19:18:00,
2013-02-23 11:23:00,49.0,40.4,30.18,SE,142,0.0,2.0,72,0.00,,,0.00,VWS V14.01,2013-02-23 19:23:00,
2013-02-23 11:28:00,49.5,39.0,30.18,NNE,26,2.0,3.0,67,0.00,,,0.00,VWS V14.01,2013-02-23 19:28:00,
2013-02-23 11:33:00,50.4,39.5,30.17,NNE,15,0.0,3.0,66,0.00,,,0.00,VWS V14.01,2013-02-23 19:33:00,
2013-02-23 11:38:00,50.5,37.6,30.17,WSW,257,2.0,4.0,61,0.00,,,0.00,VWS V14.01,2013-02-23 19:38:00,
2013-02-23 11:43:00,50.3,36.1,30.17,WSW,249,0.0,3.0,58,0.00,,,0.00,VWS V14.01,2013-02-23 19:43:00,
2013-02-23 11:48:00,51.1,35.5,30.17,SSE,147,1.0,5.0,55,0.00,,,0.00,VWS V14.01,2013-02-23 19:48:00,
2013-02-23 11:53:00,51.1,32.6,30.17,NW,319,5.0,7.0,49,0.00,,,0.00,VWS V14.01,2013-02-23 19:53:00,
2013-02-23 11:58:00,51.0,33.0,30.17,NW,317,5.0,5.0,50,0.00,,,0.00,VWS V14.01,2013-02-23 19:58:00,
2013-02-23 12:03:00,51.1,33.1,30.17,WNW,303,1.0,5.0,50,0.00,,,0.00,VWS V14.01,2013-02-23 20:03:00,
2013-02-23 12:08:00,51.2,32.7,30.16,WNW,296,3.0,6.0,49,0.00,,,0.00,VWS V14.01,2013-02-23 20:08:00,
2013-02-23 12:13:00,50.7,30.1,30.16,NW,305,2.0,8.0,45,0.00,,,0.00,VWS V14.01,2013-02-23 20:13:00,
2013-02-23 12:18:00,50.7,31.2,30.16,SE,143,2.0,4.0,47,0.00,,,0.00,VWS V14.01,2013-02-23 20:18:00,
2013-02-23 12:23:00,50.9,31.9,30.16,NNW,330,2.0,3.0,48,0.00,,,0.00,VWS V14.01,2013-02-23 20:23:00,
2013-02-23 12:28:00,51.3,31.2,30.15,North,11,3.0,5.0,46,0.00,,,0.00,VWS V14.01,2013-02-23 20:28:00,
2013-02-23 12:33:00,51.5,32.0,30.16,NW,325,0.0,5.0,47,0.00,,,0.00,VWS V14.01,2013-02-23 20:33:00,
2013-02-23 12:38:00,51.5,30.3,30.15,NW,315,2.0,5.0,44,0.00,,,0.00,VWS V14.01,2013-02-23 20:38:00,
2013-02-23 12:43:00,51.4,30.8,30.16,NE,55,2.0,3.0,45,0.00,,,0.00,VWS V14.01,2013-02-23 20:43:00,
2013-02-23 12:48:00,51.7,29.9,30.15,NNW,343,6.0,6.0,43,0.00,,,0.00,VWS V14.01,2013-02-23 20:48:00,
2013-02-23 12:53:00,51.9,30.1,30.15,NNE,24,2.0,9.0,43,0.00,,,0.00,VWS V14.01,2013-02-23 20:53:00,
2013-02-23 12:58:00,52.0,30.8,30.15,WNW,294,3.0,3.0,44,0.00,,,0.00,VWS V14.01,2013-02-23 20:58:00,
2013-02-23 13:03:00,52.1,29.7,30.15,ESE,116,1.0,5.0,42,0.00,,,0.00,VWS V14.01,2013-02-23 21:03:00,
2013-02-23 13:08:00,52.6,30.2,30.14,NNW,332,3.0,4.0,42,0.00,,,0.00,VWS V14.01,2013-02-23 21:08:00,
2013-02-23 13:13:00,52.5,29.5,30.14,SW,236,2.0,5.0,41,0.00,,,0.00,VWS V14.01,2013-02-23 21:13:00,
2013-02-23 13:18:00,53.0,30.0,30.14,WNW,298,2.0,7.0,41,0.00,,,0.00,VWS V14.01,2013-02-23 21:18:00,
2013-02-23 13:23:00,52.7,29.7,30.14,NNW,339,3.0,3.0,41,0.00,,,0.00,VWS V14.01,2013-02-23 21:23:00,
2013-02-23 13:28:00,52.6,30.2,30.14,NNW,348,2.0,6.0,42,0.00,,,0.00,VWS V14.01,2013-02-23 21:28:00,
2013-02-23 13:33:00,52.6,30.8,30.13,WNW,288,3.0,6.0,43,0.00,,,0.00,VWS V14.01,2013-02-23 21:33:00,
2013-02-23 13:38:00,52.8,31.5,30.13,East,101,1.0,1.0,44,0.00,,,0.00,VWS V14.01,2013-02-23 21:38:00,
2013-02-23 13:43:00,53.4,30.3,30.13,North,355,0.0,5.0,41,0.00,,,0.00,VWS V14.01,2013-02-23 21:43:00,
2013-02-23 13:48:00,53.6,29.3,30.13,NNW,344,4.0,6.0,39,0.00,,,0.00,VWS V14.01,2013-02-23 21:48:00,
2013-02-23 13:53:00,53.7,28.7,30.12,NNW,334,3.0,6.0,38,0.00,,,0.00,VWS V14.01,2013-02-23 21:53:00,
2013-02-23 13:58:00,53.8,30.1,30.12,ENE,60,3.0,5.0,40,0.00,,,0.00,VWS V14.01,2013-02-23 21:58:00,
2013-02-23 14:03:00,53.7,30.0,30.12,North,10,4.0,4.0,40,0.00,,,0.00,VWS V14.01,2013-02-23 22:03:00,
2013-02-23 14:08:00,53.7,30.0,30.12,NNW,338,6.0,9.0,40,0.00,,,0.00,VWS V14.01,2013-02-23 22:08:00,
2013-02-23 14:13:00,53.5,30.4,30.12,NNW,345,4.0,4.0,41,0.00,,,0.00,VWS V14.01,2013-02-23 22:13:00,
2013-02-23 14:18:00,53.7,30.0,30.12,East,87,2.0,4.0,40,0.00,,,0.00,VWS V14.01,2013-02-23 22:18:00,
2013-02-23 14:23:00,54.0,30.2,30.12,North,353,6.0,6.0,40,0.00,,,0.00,VWS V14.01,2013-02-23 22:23:00,
2013-02-23 14:28:00,53.9,29.5,30.12,WNW,302,4.0,6.0,39,0.00,,,0.00,VWS V14.01,2013-02-23 22:28:00,
2013-02-23 14:33:00,54.1,29.7,30.12,NE,41,4.0,5.0,39,0.00,,,0.00,VWS V14.01,2013-02-23 22:33:00,
2013-02-23 14:38:00,54.2,29.2,30.12,North,5,4.0,6.0,38,0.00,,,0.00,VWS V14.01,2013-02-23 22:38:00,
2013-02-23 14:43:00,54.4,30.0,30.12,SW,225,1.0,4.0,39,0.00,,,0.00,VWS V14.01,2013-02-23 22:43:00,
2013-02-23 14:48:00,54.7,29.0,30.12,NW,307,2.0,3.0,37,0.00,,,0.00,VWS V14.01,2013-02-23 22:48:00,
2013-02-23 14:53:00,54.9,28.5,30.12,North,350,7.0,8.0,36,0.00,,,0.00,VWS V14.01,2013-02-23 22:53:00,
2013-02-23 14:58:00,54.4,28.0,30.12,North,6,10.0,10.0,36,0.00,,,0.00,VWS V14.01,2013-02-23 22:58:00,
2013-02-23 15:03:00,54.3,28.6,30.11,NW,324,4.0,4.0,37,0.00,,,0.00,VWS V14.01,2013-02-23 23:03:00,
2013-02-23 15:08:00,54.4,27.3,30.11,NNE,33,4.0,4.0,35,0.00,,,0.00,VWS V14.01,2013-02-23 23:08:00,
2013-02-23 15:13:00,54.3,26.5,30.11,NW,311,1.0,5.0,34,0.00,,,0.00,VWS V14.01,2013-02-23 23:13:00,
2013-02-23 15:18:00,53.9,27.6,30.12,WSW,244,1.0,5.0,36,0.00,,,0.00,VWS V14.01,2013-02-23 23:18:00,
2013-02-23 15:23:00,53.5,25.8,30.11,NNW,347,1.0,6.0,34,0.00,,,0.00,VWS V14.01,2013-02-23 23:23:00,
2013-02-23 15:28:00,53.5,26.5,30.11,SSW,207,1.0,1.0,35,0.00,,,0.00,VWS V14.01,2013-02-23 23:28:00,
2013-02-23 15:33:00,53.4,26.5,30.11,NW,313,7.0,9.0,35,0.00,,,0.00,VWS V14.01,2013-02-23 23:33:00,
2013-02-23 15:38:00,53.2,27.6,30.11,West,263,3.0,4.0,37,0.00,,,0.00,VWS V14.01,2013-02-23 23:38:00,
2013-02-23 15:43:00,53.1,25.5,30.11,NNE,22,6.0,6.0,34,0.00,,,0.00,VWS V14.01,2013-02-23 23:43:00,
2013-02-23 15:48:00,52.8,26.6,30.11,NW,308,2.0,7.0,36,0.00,,,0.00,VWS V14.01,2013-02-23 23:48:00,
2013-02-23 15:53:00,52.7,26.5,30.11,WNW,299,0.0,4.0,36,0.00,,,0.00,VWS V14.01,2013-02-23 23:53:00,
2013-02-23 15:58:00,52.7,25.8,30.11,NNW,346,5.0,7.0,35,0.00,,,0.00,VWS V14.01,2013-02-23 23:58:00,
2013-02-23 16:03:00,52.5,26.3,30.12,NNW,336,4.0,4.0,36,0.00,,,0.00,VWS V14.01,2013-02-24 00:03:00,
2013-02-23 16:08:00,52.1,26.0,30.12,North,9,1.0,5.0,36,0.00,,,0.00,VWS V14.01,2013-02-24 00:08:00,
2013-02-23 16:13:00,52.0,26.5,30.12,NNW,346,9.0,9.0,37,0.00,,,0.00,VWS V14.01,2013-02-24 00:13:00,
2013-02-23 16:18:00,52.0,27.2,30.12,NNE,16,2.0,3.0,38,0.00,,,0.00,VWS V14.01,2013-02-24 00:18:00,
2013-02-23 16:23:00,52.0,25.9,30.11,NNW,332,4.0,4.0,36,0.00,,,0.00,VWS V14.01,2013-02-24 00:23:00,
2013-02-23 16:28:00,51.9,27.1,30.11,NNE,19,5.0,7.0,38,0.00,,,0.00,VWS V14.01,2013-02-24 00:28:00,
2013-02-23 16:33:00,51.8,25.7,30.11,West,265,2.0,3.0,36,0.00,,,0.00,VWS V14.01,2013-02-24 00:33:00,
2013-02-23 16:38:00,51.6,25.5,30.11,WNW,295,3.0,8.0,36,0.00,,,0.00,VWS V14.01,2013-02-24 00:38:00,
2013-02-23 16:43:00,51.5,25.5,30.11,NNW,332,6.0,6.0,36,0.00,,,0.00,VWS V14.01,2013-02-24 00:43:00,
2013-02-23 16:48:00,51.3,25.9,30.11,NNE,23,5.0,5.0,37,0.00,,,0.00,VWS V14.01,2013-02-24 00:48:00,
2013-02-23 16:53:00,51.2,25.2,30.11,NNE,22,3.0,5.0,36,0.00,,,0.00,VWS V14.01,2013-02-24 00:53:00,
2013-02-23 16:58:00,51.1,25.1,30.11,North,351,5.0,11.0,36,0.00,,,0.00,VWS V14.01,2013-02-24 00:58:00,
2013-02-23 17:03:00,51.0,25.7,30.12,NNW,330,3.0,6.0,37,0.00,,,0.00,VWS V14.01,2013-02-24 01:03:00,
2013-02-23 17:08:00,50.9,24.9,30.12,NNW,346,4.0,6.0,36,0.00,,,0.00,VWS V14.01,2013-02-24 01:08:00,
2013-02-23 17:13:00,50.7,24.7,30.12,West,272,4.0,6.0,36,0.00,,,0.00,VWS V14.01,2013-02-24 01:13:00,
2013-02-23 17:18:00,50.5,25.9,30.12,NNW,331,4.0,4.0,38,0.00,,,0.00,VWS V14.01,2013-02-24 01:18:00,
2013-02-23 17:23:00,50.3,25.7,30.12,NW,322,2.0,4.0,38,0.00,,,0.00,VWS V14.01,2013-02-24 01:23:00,
2013-02-23 17:28:00,50.1,24.9,30.13,NNW,342,0.0,2.0,37,0.00,,,0.00,VWS V14.01,2013-02-24 01:28:00,
2013-02-23 17:33:00,49.9,25.3,30.13,North,6,3.0,3.0,38,0.00,,,0.00,VWS V14.01,2013-02-24 01:33:00,
2013-02-23 17:38:00,49.6,25.0,30.13,West,278,0.0,2.0,38,0.00,,,0.00,VWS V14.01,2013-02-24 01:38:00,
2013-02-23 17:43:00,49.3,24.8,30.13,NW,315,1.0,6.0,38,0.00,,,0.00,VWS V14.01,2013-02-24 01:43:00,
2013-02-23 17:48:00,49.1,25.2,30.13,WNW,293,2.0,4.0,39,0.00,,,0.00,VWS V14.01,2013-02-24 01:48:00,
2013-02-23 17:53:00,48.8,25.6,30.13,NE,38,2.0,2.0,40,0.00,,,0.00,VWS V14.01,2013-02-24 01:53:00,
2013-02-23 17:58:00,48.6,24.8,30.13,NW,310,2.0,4.0,39,0.00,,,0.00,VWS V14.01,2013-02-24 01:58:00,
2013-02-23 18:03:00,48.4,25.8,30.14,NW,326,3.0,6.0,41,0.00,,,0.00,VWS V14.01,2013-02-24 02:03:00,
2013-02-23 18:08:00,48.3,25.7,30.14,NW,319,4.0,4.0,41,0.00,,,0.00,VWS V14.01,2013-02-24 02:08:00,
2013-02-23 18:13:00,48.1,25.5,30.15,North,353,2.0,3.0,41,0.00,,,0.00,VWS V14.01,2013-02-24 02:13:00,
2013-02-23 18:18:00,48.0,24.9,30.15,NNW,342,1.0,2.0,40,0.00,,,0.00,VWS V14.01,2013-02-24 02:18:00,
2013-02-23 18:23:00,47.8,25.3,30.15,North,9,4.0,7.0,41,0.00,,,0.00,VWS V14.01,2013-02-24 02:23:00,
2013-02-23 18:28:00,47.8,24.7,30.15,North,350,3.0,9.0,40,0.00,,,0.00,VWS V14.01,2013-02-24 02:28:00,
2013-02-23 18:33:00,47.7,25.2,30.15,NNW,341,1.0,3.0,41,0.00,,,0.00,VWS V14.01,2013-02-24 02:33:00,
2013-02-23 18:38:00,47.5,25.0,30.15,NNW,347,2.0,3.0,41,0.00,,,0.00,VWS V14.01,2013-02-24 02:38:00,
2013-02-23 18:43:00,47.3,24.8,30.15,NNW,340,2.0,4.0,41,0.00,,,0.00,VWS V14.01,2013-02-24 02:43:00,
2013-02-23 18:48:00,47.2,25.3,30.15,NNW,334,2.0,5.0,42,0.00,,,0.00,VWS V14.01,2013-02-24 02:48:00,
2013-02-23 18:53:00,47.2,25.3,30.15,NNW,340,3.0,3.0,42,0.00,,,0.00,VWS V14.01,2013-02-24 02:53:00,
2013-02-23 18:58:00,47.0,24.5,30.15,North,353,3.0,4.0,41,0.00,,,0.00,VWS V14.01,2013-02-24 02:58:00,
2013-02-23 19:03:00,47.2,24.1,30.15,NNE,16,1.0,2.0,40,0.00,,,0.00,VWS V14.01,2013-02-24 03:03:00,
2013-02-23 19:08:00,47.4,23.1,30.16,ENE,74,3.0,3.0,38,0.00,,,0.00,VWS V14.01,2013-02-24 03:08:00,
2013-02-23 19:13:00,47.6,20.6,30.16,ENE,70,2.0,5.0,34,0.00,,,0.00,VWS V14.01,2013-02-24 03:13:00,
2013-02-23 19:18:00,47.9,18.7,30.15,East,82,4.0,4.0,31,0.00,,,0.00,VWS V14.01,2013-02-24 03:18:00,
2013-02-23 19:23:00,48.1,19.6,30.16,East,93,2.0,3.0,32,0.00,,,0.00,VWS V14.01,2013-02-24 03:23:00,
2013-02-23 19:28:00,47.5,21.2,30.15,ESE,107,3.0,3.0,35,0.00,,,0.00,VWS V14.01,2013-02-24 03:28:00,
2013-02-23 19:33:00,46.9,21.4,30.15,East,100,3.0,5.0,36,0.00,,,0.00,VWS V14.01,2013-02-24 03:33:00,
2013-02-23 19:38:00,46.5,22.3,30.16,ESE,109,5.0,5.0,38,0.00,,,0.00,VWS V14.01,2013-02-24 03:38:00,
2013-02-23 19:43:00,46.2,21.4,30.16,ESE,107,4.0,5.0,37,0.00,,,0.00,VWS V14.01,2013-02-24 03:43:00,
2013-02-23 19:48:00,46.1,21.3,30.16,SE,128,3.0,4.0,37,0.00,,,0.00,VWS V14.01,2013-02-24 03:48:00,
2013-02-23 19:53:00,45.8,21.0,30.16,East,87,5.0,5.0,37,0.00,,,0.00,VWS V14.01,2013-02-24 03:53:00,
2013-02-23 19:58:00,46.0,20.6,30.16,East,91,6.0,9.0,36,0.00,,,0.00,VWS V14.01,2013-02-24 03:58:00,
2013-02-23 20:03:00,46.2,20.7,30.17,ESE,106,4.0,7.0,36,0.00,,,0.00,VWS V14.01,2013-02-24 04:03:00,
2013-02-23 20:08:00,46.1,19.3,30.17,East,84,3.0,6.0,34,0.00,,,0.00,VWS V14.01,2013-02-24 04:08:00,
2013-02-23 20:13:00,46.5,18.2,30.16,ENE,60,4.0,4.0,32,0.00,,,0.00,VWS V14.01,2013-02-24 04:13:00,
2013-02-23 20:18:00,47.0,18.0,30.16,ENE,74,3.0,5.0,31,0.00,,,0.00,VWS V14.01,2013-02-24 04:18:00,
2013-02-23 20:23:00,47.2,17.4,30.17,ENE,76,4.0,4.0,30,0.00,,,0.00,VWS V14.01,2013-02-24 04:23:00,
2013-02-23 20:28:00,47.4,16.8,30.17,East,92,4.0,4.0,29,0.00,,,0.00,VWS V14.01,2013-02-24 04:28:00,
2013-02-23 20:33:00,47.5,16.8,30.17,East,82,2.0,3.0,29,0.00,,,0.00,VWS V14.01,2013-02-24 04:33:00,
2013-02-23 20:38:00,47.6,16.9,30.17,ENE,70,4.0,4.0,29,0.00,,,0.00,VWS V14.01,2013-02-24 04:38:00,
2013-02-23 20:43:00,47.5,16.8,30.16,NE,56,1.0,4.0,29,0.00,,,0.00,VWS V14.01,2013-02-24 04:43:00,
2013-02-23 20:48:00,47.4,16.8,30.16,ENE,75,1.0,3.0,29,0.00,,,0.00,VWS V14.01,2013-02-24 04:48:00,
2013-02-23 20:53:00,47.2,16.6,30.17,East,86,4.0,4.0,29,0.00,,,0.00,VWS V14.01,2013-02-24 04:53:00,
2013-02-23 20:58:00,47.1,16.5,30.17,ENE,74,1.0,2.0,29,0.00,,,0.00,VWS V14.01,2013-02-24 04:58:00,
2013-02-23 21:00:00,47.0,16.4,30.17,ENE,65,1.0,1.0,29,0.00,,,0.00,VWS V14.01,2013-02-24 05:00:00,
2013-02-23 21:05:00,46.9,17.1,30.17,East,100,3.0,3.0,30,0.00,,,0.00,VWS V14.01,2013-02-24 05:05:00,
2013-02-23 21:10:00,46.8,17.0,30.17,East,93,4.0,4.0,30,0.00,,,0.00,VWS V14.01,2013-02-24 05:10:00,
2013-02-23 21:15:00,46.5,16.8,30.17,NE,56,5.0,5.0,30,0.00,,,0.00,VWS V14.01,2013-02-24 05:15:00,
2013-02-23 21:20:00,46.2,18.0,30.17,ESE,107,8.0,8.0,32,0.00,,,0.00,VWS V14.01,2013-02-24 05:20:00,
2013-02-23 21:25:00,46.3,16.6,30.17,NE,52,4.0,4.0,30,0.00,,,0.00,VWS V14.01,2013-02-24 05:25:00,
2013-02-23 21:30:00,46.7,16.1,30.17,East,80,5.0,5.0,29,0.00,,,0.00,VWS V14.01,2013-02-24 05:30:00,
2013-02-23 21:35:00,46.9,16.3,30.17,NE,50,2.0,4.0,29,0.00,,,0.00,VWS V14.01,2013-02-24 05:35:00,
2013-02-23 21:40:00,46.9,16.3,30.17,ENE,78,4.0,4.0,29,0.00,,,0.00,VWS V14.01,2013-02-24 05:40:00,
2013-02-23 21:45:00,46.9,16.3,30.17,ENE,60,4.0,4.0,29,0.00,,,0.00,VWS V14.01,2013-02-24 05:45:00,
2013-02-23 21:50:00,46.7,16.1,30.17,ENE,70,2.0,2.0,29,0.00,,,0.00,VWS V14.01,2013-02-24 05:50:00,
2013-02-23 21:55:00,46.5,16.8,30.17,ESE,111,3.0,3.0,30,0.00,,,0.00,VWS V14.01,2013-02-24 05:55:00,
2013-02-23 22:00:00,46.2,16.5,30.17,ENE,75,2.0,3.0,30,0.00,,,0.00,VWS V14.01,2013-02-24 06:00:00,
2013-02-23 22:05:00,45.9,16.2,30.17,North,11,2.0,4.0,30,0.00,,,0.00,VWS V14.01,2013-02-24 06:05:00,
2013-02-23 22:10:00,45.6,16.7,30.17,NNE,17,1.0,2.0,31,0.00,,,0.00,VWS V14.01,2013-02-24 06:10:00,
2013-02-23 22:15:00,45.2,16.4,30.17,NNE,22,1.0,2.0,31,0.00,,,0.00,VWS V14.01,2013-02-24 06:15:00,
2013-02-23 22:20:00,45.0,16.9,30.17,ENE,60,0.0,1.0,32,0.00,,,0.00,VWS V14.01,2013-02-24 06:20:00,
2013-02-23 22:25:00,44.8,16.8,30.17,East,87,1.0,1.0,32,0.00,,,0.00,VWS V14.01,2013-02-24 06:25:00,
2013-02-23 22:30:00,44.5,17.2,30.17,East,87,1.0,3.0,33,0.00,,,0.00,VWS V14.01,2013-02-24 06:30:00,
2013-02-23 22:35:00,44.2,17.6,30.17,East,100,2.0,5.0,34,0.00,,,0.00,VWS V14.01,2013-02-24 06:35:00,
2013-02-23 22:40:00,43.8,18.0,30.17,ENE,76,4.0,4.0,35,0.00,,,0.00,VWS V14.01,2013-02-24 06:40:00,
2013-02-23 22:45:00,43.7,17.9,30.16,NE,49,2.0,4.0,35,0.00,,,0.00,VWS V14.01,2013-02-24 06:45:00,
2013-02-23 22:50:00,43.7,17.2,30.16,ENE,76,2.0,2.0,34,0.00,,,0.00,VWS V14.01,2013-02-24 06:50:00,
2013-02-23 22:55:00,43.8,17.3,30.16,East,83,4.0,4.0,34,0.00,,,0.00,VWS V14.01,2013-02-24 06:55:00,
2013-02-23 23:00:00,44.2,17.6,30.16,ENE,78,3.0,6.0,34,0.00,,,0.00,VWS V14.01,2013-02-24 07:00:00,
2013-02-23 23:05:00,44.3,17.7,30.16,ESE,108,4.0,5.0,34,0.00,,,0.00,VWS V14.01,2013-02-24 07:05:00,
2013-02-23 23:10:00,44.1,17.5,30.16,ENE,60,2.0,4.0,34,0.00,,,0.00,VWS V14.01,2013-02-24 07:10:00,
2013-02-23 23:15:00,43.9,17.4,30.16,ENE,74,2.0,4.0,34,0.00,,,0.00,VWS V14.01,2013-02-24 07:15:00,
2013-02-23 23:20:00,44.0,18.1,30.16,East,80,5.0,5.0,35,0.00,,,0.00,VWS V14.01,2013-02-24 07:20:00,
2013-02-23 23:25:00,43.9,17.4,30.16,ENE,76,3.0,3.0,34,0.00,,,0.00,VWS V14.01,2013-02-24 07:25:00,
2013-02-23 23:30:00,43.8,18.0,30.16,ENE,70,3.0,3.0,35,0.00,,,0.00,VWS V14.01,2013-02-24 07:30:00,
2013-02-23 23:35:00,43.6,17.8,30.16,NE,42,1.0,1.0,35,0.00,,,0.00,VWS V14.01,2013-02-24 07:35:00,
2013-02-23 23:40:00,43.6,17.8,30.16,NE,51,2.0,2.0,35,0.00,,,0.00,VWS V14.01,2013-02-24 07:40:00,
2013-02-23 23:45:00,43.5,17.7,30.16,NE,45,1.0,1.0,35,0.00,,,0.00,VWS V14.01,2013-02-24 07:45:00,
2013-02-23 23:50:00,43.3,18.2,30.16,ENE,70,2.0,3.0,36,0.00,,,0.00,VWS V14.01,2013-02-24 07:50:00,
2013-02-23 23:55:00,43.0,17.9,30.16,East,81,4.0,4.0,36,0.00,,,0.00,VWS V14.01,2013-02-24 07:55:00,